Weather History for Sedalia, MO

Change the Weather History Date:

Sunday, April 28, 2013

  Actual Average Record
Temperature  
Mean Temperature 60 °F 60 °F  
Max Temperature 69 °F 71 °F 89 °F (1989)
Min Temperature 50 °F 50 °F 23 °F (1992)
Degree Days  
Heating Degree Days 5 6  
Month to date heating degree days 358 269  
Since 1 July heating degree days 4599 4471  
Cooling Degree Days 0 1  
Month to date cooling degree days 12 27  
Year to date cooling degree days 13 30  
Growing Degree Days 10 (Base 50)    
Moisture  
Dew Point 50 °F    
Average Humidity 75    
Maximum Humidity 93    
Minimum Humidity 56    
Precipitation  
Precipitation 0.00 in 0.19 in 1.69 in (1990)
Month to date precipitation 6.05 3.85  
Year to date precipitation 13.72 10.06  
Sea Level Pressure  
Sea Level Pressure 29.95 in    
Wind  
Wind Speed 6 mph (SW)    
Max Wind Speed 12 mph    
Max Gust Speed 16 mph    
Visibility 8 miles    
Events      
T = Trace of Precipitation, MM = Missing Value Source: NWS Daily Summary

Daily Weather History Graph

Daily Weather History Graph

Search for Another Location

Airport:

Trip Planner

Search our weather history database for the weather conditions in past years. The results will help you decide how hot, cold, wet, or windy it might be!

Date:

Astronomy

Apr. 28, 2013 Rise Set
Actual Time 6:18 AM CDT 8:02 PM CDT
Civil Twilight 5:50 AM CDT 8:30 PM CDT
Nautical Twilight 5:15 AM CDT 9:05 PM CDT
Astronomical Twilight 4:39 AM CDT 9:42 PM CDT
Moon 11:32 PM CDT (4/28) 8:36 AM CDT (4/28)
Length of Visible Light 14h 40m
Length of Day
13h 43m
Waning Gibbous, 88% of the Moon is Illuminated
Apr 28
Waning Gibbous
May 2
Last Quarter
May 9
New
May 17
First Quarter
May 24
Full

Hourly Weather History & Observations

Time (CDT) Temp. Dew Point Humidity Pressure Visibility Wind Dir Wind Speed Gust Speed Precip Events Conditions
12:53 AM 51.1 °F 48.9 °F 92% 30.01 in 2.5 mi Calm Calm - N/A   Overcast
1:00 AM 51.8 °F 48.2 °F 88% 30.00 in 4.0 mi West 3.5 mph - N/A   Overcast
1:35 AM 51.8 °F 48.2 °F 88% 30.00 in 7.0 mi Calm Calm - N/A   Overcast
1:53 AM 51.1 °F 48.9 °F 92% 29.99 in 7.0 mi Calm Calm - N/A   Overcast
2:53 AM 50.0 °F 48.9 °F 96% 29.99 in 5.0 mi West 4.6 mph - N/A   Overcast
3:06 AM 51.8 °F 48.2 °F 88% 29.98 in 6.0 mi West 5.8 mph - N/A   Overcast
3:19 AM 51.8 °F 48.2 °F 88% 29.98 in 6.0 mi West 5.8 mph - N/A   Overcast
3:38 AM 51.8 °F 48.2 °F 88% 29.98 in 6.0 mi West 5.8 mph - N/A   Overcast
3:53 AM 51.1 °F 48.9 °F 92% 29.98 in 7.0 mi WNW 5.8 mph - N/A   Overcast
4:53 AM 51.1 °F 48.9 °F 92% 29.98 in 9.0 mi WNW 4.6 mph - N/A   Overcast
5:53 AM 51.1 °F 48.9 °F 92% 29.97 in 10.0 mi West 3.5 mph - N/A   Overcast
6:53 AM 51.1 °F 48.0 °F 89% 29.99 in 10.0 mi West 5.8 mph - N/A   Overcast
8:53 AM 53.1 °F 48.9 °F 86% 30.01 in 9.0 mi West 6.9 mph - N/A   Overcast
11:53 AM 57.9 °F 48.9 °F 72% 30.00 in 10.0 mi SW 5.8 mph - N/A   Overcast
12:53 PM 62.1 °F 52.0 °F 70% 29.98 in 10.0 mi SW 8.1 mph - N/A   Mostly Cloudy
1:26 PM 64.4 °F 53.6 °F 68% 29.97 in 10.0 mi Calm Calm - N/A   Scattered Clouds
1:53 PM 64.9 °F 52.0 °F 63% 29.95 in 10.0 mi WSW 10.4 mph - N/A   Partly Cloudy
3:53 PM 68.0 °F 54.0 °F 61% 29.90 in 10.0 mi SSW 8.1 mph - N/A   Clear
4:53 PM 69.1 °F 54.0 °F 58% 29.88 in 10.0 mi SSW 6.9 mph - N/A   Clear
5:53 PM 68.0 °F 55.0 °F 63% 29.86 in 10.0 mi South 8.1 mph - N/A   Clear
6:53 PM 66.9 °F 55.0 °F 66% 29.85 in 10.0 mi South 6.9 mph - N/A   Clear
7:53 PM 66.0 °F 50.0 °F 56% 29.85 in 10.0 mi South 4.6 mph - N/A   Clear
8:53 PM 61.0 °F 51.1 °F 70% 29.87 in 10.0 mi SSE 4.6 mph - N/A   Clear
9:53 PM 55.9 °F 50.0 °F 80% 29.88 in 10.0 mi SSE 8.1 mph - N/A   Clear
10:53 PM 55.0 °F 48.0 °F 77% 29.87 in 10.0 mi SSE 9.2 mph - N/A   Clear
11:53 PM 53.1 °F 48.0 °F 83% 29.86 in 10.0 mi SSE 8.1 mph - N/A   Clear